CZ-6A DEB

Satellite information

Favourite Embed

Satellite Type and Status

DEBRISIN ORBIT

Key statistics

Satellite CZ-6A DEB at a glance.

Uptime

334

Days in orbit

Revolutions

≈ 14.6

Per day

Orbit

LEO

Low Earth Orbit

Inclination

88.9

Latest

Satellite identification and parameters

Extended collection of information and parameters for CZ-6A DEB.

Object identification

Identified? True

Debris? True

Object name: CZ-6A DEB

International designator: 2024-140TV

Object number (NORAD): 61308

Object ID (CCSDS): 61308

Country: PEOPLES REPUBLIC OF CHINA (PRC)

Current information (Y/N): Y

RCS size: SMALL

Orbital parameters

Period: 98.62 minutes

Inclination: 88.9033 deg

SMA: 7070.83 km

Apoapsis: 787.672 km

Periapsis: 597.718 km

RAAN: 307.1714 deg

Eccentricy: 0.0134322

Argument of periapsis: 7.3322 deg

Mean anomaly: 352.9811 deg

Mean motion: 14.60148928 rev/day

Mean motion (dot): 0.00001716 rev/day2

B* drag term: 0.00031046 1/REarth

Two-line elements (TLE)

Creation date: July 5, 2025, 5:45 p.m.

Reference frame: TEME

Reference center: EARTH

Epoch: July 5, 2025, 7:53 a.m. UTC

TLE line 0: 0 CZ-6A DEB

TLE line 1: 1 61308U 24140TV 25186.32865594 .00001716 00000-0 31046-3 0 9995

TLE line 2: 2 61308 88.9033 307.1714 0134322 7.3322 352.9811 14.60148928 45377

Live tracking on map

Real-time ground track for satellite CZ-6A DEB.

In-orbit conjunctions

A list of the most updated potential collisions computed for object CZ-6A DEB.

Target Orbit TCA Probability of collision Miss distance Type
COSMOS 2251 DEB LEO 2025-05-31 19:13:11 0.0001893265 33.0 (m) DEBRIS
SL-14 R/B LEO 2025-03-12 02:36:33 0.0002309864 629.0 (m) ROCKET BODY
SL-8 R/B LEO 2025-01-11 10:10:48 0.0002802525 370.0 (m) ROCKET BODY
CZ-6A DEB LEO 2025-01-04 10:27:40 0.0003689363 322.0 (m) DEBRIS
FENGYUN 1C DEB SSO 2024-10-29 01:35:11 0.0007121926 137.0 (m) DEBRIS

Associated space launch

18 Low Earth Orbit communication satellites with Ku, Q and V band payloads for the G60 constellation operated by Shanghai Spacecom Satellite Technology (SSST) with funding backed by the Shanghai local government. Initial constellation will consist of 1296 satellites by 2027 with long term plans to expand it to 12000 satellites.

CZ-6A DEB was lifted into orbit during the mission ‘Long March 6A | G60 Polar Group 01’, on board a Long March 6A space rocket.

The launch took place on Aug. 6, 2024, 6:42 a.m. from Launch Complex 9A.

For more information about the launch, click the button.

Launch to space Long March 6A | G60 Polar Group 01
Long March 6A | G60 Polar Group 01

Agency: N/A

Status: Launch Successful

Launch date: Aug. 6, 2024, 6:42 a.m. UTC

Rocket: Long March 6A

Launch pad: Launch Complex 9A

Location: Taiyuan Satellite Launch Center, People's Republic of China

...

Latest news about this satellite

News about space launch
Brightness of first Chinese broadband constellation satellites alarms astronomers

The first satellites of a Chinese broadband constellation are significantly brighter than those of Western systems, posing a new challenge for astronomers.

News about space launch
Chinese rocket stage breaks up into cloud of more than 700 pieces of space debris

HELSINKI — A Chinese Long March 6A rocket’s upper stage has fragmented into a cloud of over 700 pieces of space debris, adding to concerns about long-term orbital safety. China […]

News about space launch
China's Thousand Sails Megaconstellation Kicks Off with Dangerous Debris Field

China's Thousand Sails Megaconstellation Kicks Off with Dangerous Debris Field


Newsletter sign-up

Weekly statistics, charts and insights to help you stay on top of the space industry.